When you browse on this site, cookies collect data to enhance your experience and personalize the content and advertising you see.
Visit our Privacy Policy to learn more. By continuing to use the site, you agree to this use of cookies and data.
  • In Portugal
  • List of Countries
  • For 7 days
  • Water Temperature
  • Weather Map
  • Weather Widgets
  • user-avatar
    Login

    Hourly Weather Ghazni

    Today, 18 October, Friday

    Time Temperature Precipitation Wind Pressure Humidity
    00:00 +10°C° 0 mm 1 mps 587 mmHg 40%
    01:00 +9°C° 0 mm 1 mps 587 mmHg 43%
    02:00 +8°C° 0 mm 1 mps 586 mmHg 45%
    03:00 +8°C° 0 mm 1 mps 586 mmHg 46%
    04:00 +7°C° 0 mm 2 mps 586 mmHg 46%
    05:00 +8°C° 0 mm 1 mps 586 mmHg 45%
    06:00 +9°C° 0 mm 1 mps 587 mmHg 42%
    07:00 +10°C° 0 mm 1 mps 588 mmHg 40%
    08:00 +10°C° 0 mm 2 mps 589 mmHg 37%
    09:00 +13°C° 0 mm 2 mps 590 mmHg 33%
    10:00 +14°C° 0 mm 2 mps 590 mmHg 29%
    11:00 +16°C° 0 mm 3 mps 591 mmHg 25%
    12:00 +16°C° 0 mm 3 mps 591 mmHg 22%
    13:00 +17°C° 0 mm 3 mps 590 mmHg 19%
    14:00 +17°C° 0 mm 3 mps 590 mmHg 16%
    15:00 +17°C° 0 mm 3 mps 590 mmHg 16%
    16:00 +17°C° 0 mm 2 mps 590 mmHg 17%
    17:00 +16°C° 0 mm 3 mps 590 mmHg 21%
    18:00 +13°C° 0 mm 3 mps 589 mmHg 29%
    19:00 +12°C° 0 mm 3 mps 589 mmHg 37%
    20:00 +10°C° 0 mm 3 mps 589 mmHg 44%
    21:00 +9°C° 0 mm 3 mps 589 mmHg 45%
    22:00 +9°C° 0 mm 2 mps 588 mmHg 46%
    23:00 +8°C° 0 mm 2 mps 588 mmHg 47%

    Tomorrow, 19 October, Saturday

    Time Temperature Precipitation Wind Pressure Humidity
    00:00 +9°C° 0 mm 1 mps 588 mmHg 50%
    01:00 +8°C° 0 mm 1 mps 587 mmHg 52%
    02:00 +6°C° 0 mm 0 mps 587 mmHg 54%
    03:00 +6°C° 0 mm 0 mps 587 mmHg 56%
    04:00 +5°C° 0 mm 0 mps 586 mmHg 57%
    05:00 +5°C° 0 mm 0 mps 586 mmHg 58%
    06:00 +6°C° 0 mm 0 mps 587 mmHg 52%
    07:00 +8°C° 0 mm 0 mps 589 mmHg 46%
    08:00 +9°C° 0 mm 0 mps 590 mmHg 40%
    09:00 +12°C° 0 mm 1 mps 590 mmHg 37%
    10:00 +13°C° 0 mm 1 mps 591 mmHg 34%
    11:00 +15°C° 0 mm 1 mps 591 mmHg 31%
    12:00 +16°C° 0 mm 1 mps 591 mmHg 28%
    13:00 +17°C° 0 mm 2 mps 591 mmHg 25%
    14:00 +18°C° 0 mm 2 mps 591 mmHg 21%
    15:00 +17°C° 0 mm 2 mps 590 mmHg 21%
    16:00 +17°C° 0 mm 2 mps 590 mmHg 20%
    17:00 +17°C° 0 mm 2 mps 590 mmHg 19%
    18:00 +15°C° 0 mm 2 mps 589 mmHg 22%
    19:00 +14°C° 0 mm 1 mps 589 mmHg 25%
    20:00 +12°C° 0 mm 1 mps 588 mmHg 27%
    21:00 +11°C° 0 mm 1 mps 588 mmHg 28%
    22:00 +10°C° 0 mm 1 mps 588 mmHg 29%
    23:00 +10°C° 0 mm 1 mps 588 mmHg 30%

    Day after tomorrow, 20 October, Sunday

    Time Temperature Precipitation Wind Pressure Humidity
    00:00 +9°C° 0 mm 1 mps 588 mmHg 31%
    01:00 +9°C° 0 mm 1 mps 587 mmHg 33%
    02:00 +8°C° 0 mm 1 mps 587 mmHg 34%
    03:00 +7°C° 0 mm 0 mps 587 mmHg 35%
    04:00 +7°C° 0 mm 0 mps 587 mmHg 36%
    05:00 +6°C° 0 mm 0 mps 587 mmHg 37%
    06:00 +8°C° 0 mm 0 mps 588 mmHg 34%
    07:00 +9°C° 0 mm 0 mps 589 mmHg 31%
    08:00 +12°C° 0 mm 1 mps 590 mmHg 28%
    09:00 +13°C° 0 mm 1 mps 590 mmHg 25%
    10:00 +14°C° 0 mm 1 mps 590 mmHg 23%
    11:00 +16°C° 0 mm 1 mps 591 mmHg 21%
    12:00 +17°C° 0 mm 2 mps 591 mmHg 19%
    13:00 +17°C° 0 mm 2 mps 590 mmHg 17%
    14:00 +18°C° 0 mm 3 mps 590 mmHg 15%
    15:00 +18°C° 0 mm 3 mps 590 mmHg 14%
    16:00 +18°C° 0 mm 3 mps 590 mmHg 14%
    17:00 +18°C° 0 mm 3 mps 589 mmHg 13%
    18:00 +16°C° 0 mm 3 mps 589 mmHg 16%
    19:00 +13°C° 0 mm 3 mps 588 mmHg 19%
    20:00 +12°C° 0 mm 2 mps 588 mmHg 22%
    21:00 +10°C° 0 mm 2 mps 588 mmHg 23%
    22:00 +10°C° 0 mm 2 mps 588 mmHg 24%
    23:00 +9°C° 0 mm 2 mps 587 mmHg 25%

    21 October, Monday

    Time Temperature Precipitation Wind Pressure Humidity
    00:00 +8°C° 0 mm 2 mps 587 mmHg 27%
    01:00 +8°C° 0 mm 1 mps 586 mmHg 29%
    02:00 +7°C° 0 mm 1 mps 586 mmHg 31%
    03:00 +7°C° 0 mm 1 mps 585 mmHg 31%
    04:00 +7°C° 0 mm 1 mps 585 mmHg 32%
    05:00 +6°C° 0 mm 1 mps 585 mmHg 33%
    06:00 +8°C° 0 mm 1 mps 586 mmHg 30%
    07:00 +8°C° 0 mm 0 mps 587 mmHg 27%
    08:00 +10°C° 0 mm 0 mps 588 mmHg 24%
    09:00 +12°C° 0 mm 1 mps 589 mmHg 22%
    10:00 +14°C° 0 mm 1 mps 589 mmHg 19%
    11:00 +16°C° 0 mm 1 mps 590 mmHg 17%
    12:00 +18°C° 0 mm 1 mps 589 mmHg 15%
    13:00 +18°C° 0 mm 2 mps 589 mmHg 14%
    14:00 +19°C° 0 mm 2 mps 589 mmHg 13%
    15:00 +18°C° 0 mm 2 mps 589 mmHg 13%
    16:00 +18°C° 0 mm 3 mps 588 mmHg 13%
    17:00 +18°C° 0 mm 3 mps 588 mmHg 13%
    18:00 +16°C° 0 mm 3 mps 587 mmHg 15%
    19:00 +13°C° 0 mm 3 mps 587 mmHg 18%
    20:00 +11°C° 0 mm 3 mps 587 mmHg 20%
    21:00 +11°C° 0 mm 3 mps 586 mmHg 21%
    22:00 +10°C° 0 mm 2 mps 586 mmHg 22%
    23:00 +9°C° 0 mm 2 mps 586 mmHg 23%

    22 October, Tuesday

    Time Temperature Precipitation Wind Pressure Humidity
    00:00 +8°C° 0 mm 2 mps 585 mmHg 25%
    01:00 +8°C° 0 mm 1 mps 585 mmHg 26%
    02:00 +7°C° 0 mm 1 mps 584 mmHg 28%
    03:00 +7°C° 0 mm 1 mps 584 mmHg 29%
    04:00 +6°C° 0 mm 1 mps 583 mmHg 30%
    05:00 +6°C° 0 mm 1 mps 583 mmHg 31%
    06:00 +6°C° 0 mm 0 mps 584 mmHg 28%
    07:00 +8°C° 0 mm 0 mps 585 mmHg 26%
    08:00 +9°C° 0 mm 0 mps 586 mmHg 23%
    09:00 +11°C° 0 mm 0 mps 587 mmHg 21%
    10:00 +13°C° 0 mm 1 mps 587 mmHg 19%
    11:00 +15°C° 0 mm 1 mps 587 mmHg 17%
    12:00 +16°C° 0 mm 2 mps 587 mmHg 16%
    13:00 +17°C° 0 mm 2 mps 587 mmHg 16%
    14:00 +18°C° 0 mm 3 mps 587 mmHg 15%
    15:00 +18°C° 0 mm 3 mps 587 mmHg 15%
    16:00 +18°C° 0 mm 3 mps 587 mmHg 16%
    17:00 +18°C° 0 mm 3 mps 587 mmHg 17%
    18:00 +16°C° 0 mm 3 mps 586 mmHg 20%
    19:00 +13°C° 0 mm 3 mps 586 mmHg 22%
    20:00 +12°C° 0 mm 2 mps 585 mmHg 25%
    21:00 +10°C° 0 mm 2 mps 585 mmHg 27%
    22:00 +10°C° 0 mm 2 mps 585 mmHg 30%
    23:00 +9°C° 0 mm 2 mps 585 mmHg 32%

    23 October, Wednesday

    Time Temperature Precipitation Wind Pressure Humidity
    00:00 +9°C° 0 mm 1 mps 585 mmHg 35%
    01:00 +8°C° 0 mm 1 mps 584 mmHg 38%
    02:00 +8°C° 0 mm 1 mps 584 mmHg 42%
    03:00 +8°C° 0 mm 1 mps 584 mmHg 43%
    04:00 +6°C° 0 mm 2 mps 584 mmHg 45%
    05:00 +6°C° 0 mm 2 mps 584 mmHg 46%
    06:00 +7°C° 0 mm 2 mps 584 mmHg 43%
    07:00 +8°C° 0 mm 2 mps 585 mmHg 41%
    08:00 +8°C° 0 mm 2 mps 585 mmHg 38%
    09:00 +10°C° 0 mm 2 mps 586 mmHg 34%
    10:00 +13°C° 0 mm 2 mps 586 mmHg 30%
    11:00 +14°C° 0 mm 2 mps 587 mmHg 26%
    12:00 +15°C° 0 mm 2 mps 587 mmHg 23%
    13:00 +16°C° 0 mm 2 mps 586 mmHg 21%
    14:00 +17°C° 0 mm 2 mps 586 mmHg 19%
    15:00 +16°C° 0 mm 2 mps 586 mmHg 19%
    16:00 +16°C° 0 mm 2 mps 586 mmHg 20%
    17:00 +16°C° 0 mm 2 mps 585 mmHg 20%
    18:00 +14°C° 0 mm 2 mps 585 mmHg 24%
    19:00 +12°C° 0 mm 2 mps 584 mmHg 28%
    20:00 +9°C° 0 mm 2 mps 584 mmHg 32%
    21:00 +8°C° 0 mm 2 mps 584 mmHg 33%
    22:00 +8°C° 0 mm 2 mps 584 mmHg 34%
    23:00 +7°C° 0 mm 2 mps 584 mmHg 34%
    Show more